Location: Unspecified
(48.2082°N, 0.0000°E)
Time: 11:36:40
(UTC+00:00)

Tiros 1 despin weight - Pass Details

Date: 27 June 2019
Orbit: 594 x 642 km, 48.2° (Epoch: 19 August)

Event Time Altitude Azimuth Distance (km) Brightness Sun altitude
Rises 20:19:20 0° 205° (SSW) 2,869 ? -2.7°
Reaches altitude 10° 20:22:08 10° 189° (S) 1,959 ? -3.1°
Maximum altitude 20:25:24 20° 142° (SE) 1,413 ? -3.5°
Drops below altitude 10° 20:28:39 10° 95° (E) 1,946 ? -3.9°
Sets 20:31:24 0° 78° (ENE) 2,845 ? -4.2°
